EW5954 Weather Reports


Display with metric or nautical units.
time (UTC)temp
F
wind
direction
speed
MPH
gust
MPH
rain 1hr
in
rain 24hr
in
rain mn
in
humidity
%
barometer
mb
20260903161108 83 342 0.0 2.0 0.00 0.01 0.01 68
20260903160603 83 295 0.0 2.0 0.00 0.01 0.01 66
20260903160057 83 341 0.0 1.0 0.00 0.01 0.01 63
20260903155556 82 317 1.0 2.0 0.00 0.01 0.01 63
20260903155051 83 339 0.0 2.0 0.00 0.01 0.01 59
20260903154548 84 282 1.0 2.0 0.00 0.01 0.01 59
20260903154044 84 355 0.0 2.0 0.00 0.01 0.01 59
20260903153538 84 309 0.0 2.0 0.00 0.01 0.01 60
20260903153035 84 321 0.0 2.0 0.00 0.01 0.01 62
20260903152530 83 342 0.0 2.0 0.00 0.01 0.01 63
20260903152027 83 345 0.0 1.0 0.00 0.01 0.01 63
20260903151525 83 353 0.0 2.0 0.00 0.01 0.01 65
20260903151021 82 359 0.0 1.0 0.00 0.01 0.01 69
20260903150515 82 327 1.0 2.0 0.00 0.01 0.01 63
20260903150010 82 329 0.0 1.0 0.00 0.01 0.01 65
20260903145504 82 321 0.0 1.0 0.00 0.01 0.01 67
20260903145000 82 347 0.0 1.0 0.00 0.01 0.01 67
20260903144459 82 336 0.0 1.0 0.00 0.01 0.01 68
20260903143955 81 317 0.0 0.0 0.00 0.01 0.01 66
20260903143451 80 332 0.0 1.0 0.00 0.01 0.01 71
20260903142947 81 341 0.0 0.0 0.00 0.01 0.01 71
20260903142442 80 342 0.0 2.0 0.00 0.01 0.01 71
20260903141938 79 349 0.0 0.0 0.00 0.01 0.01 73
20260903141433 79 336 0.0 0.0 0.00 0.01 0.01 76
20260903140929 79 341 0.0 2.0 0.00 0.01 0.01 76
20260903140425 79 349 0.0 1.0 0.00 0.01 0.01 77
20260903135925 78 359 0.0 1.0 0.00 0.01 0.01 78
20260903135421 77 333 0.0 0.0 0.00 0.01 0.01 83
20260903134915 76 333 0.0 1.0 0.00 0.01 0.01 83
20260903134414 75 23 1.0 2.0 0.00 0.01 0.01 83
20260903133912 74 339 1.0 2.0 0.00 0.01 0.01 86
20260903133408 73 349 0.0 1.0 0.00 0.01 0.01 90
20260903132903 72 339 0.0 1.0 0.00 0.01 0.01 91
20260903132359 72 321 0.0 2.0 0.00 0.01 0.01 93
20260903131853 71 353 0.0 0.0 0.00 0.01 0.01 97
20260903131353 70 5 0.0 0.0 0.00 0.01 0.01 99
20260903130852 69 345 0.0 0.0 0.00 0.01 0.01 99
20260903130347 69 349 0.0 0.0 0.00 0.01 0.01 99
20260903125846 69 340 0.0 0.0 0.00 0.01 0.01 99
20260903125341 69 342 0.0 0.0 0.00 0.01 0.01 99
20260903124840 68 9 0.0 0.0 0.00 0.01 0.01 99
20260903124336 68 334 0.0 1.0 0.00 0.01 0.01 99
20260903123834 68 346 0.0 1.0 0.00 0.01 0.01 99
20260903123329 68 340 0.0 0.0 0.00 0.01 0.01 99
20260903122822 68 351 0.0 0.0 0.00 0.01 0.01 99
20260903122317 68 343 0.0 1.0 0.00 0.01 0.01 99
20260903121815 67 353 0.0 0.0 0.07 0.01 0.01 99
20260903121311 67 354 0.0 0.0 0.07 0.01 0.01 99
20260903120806 67 353 0.0 0.0 0.00 0.00 0.00 99
20260903120300 67 347 0.0 0.0 0.00 0.00 0.00 99
20260903115758 67 356 0.0 0.0 0.00 0.00 0.00 99
20260903115254 67 357 0.0 1.0 0.00 0.00 0.00 99
20260903114748 67 8 0.0 1.0 0.00 0.00 0.00 99
20260903114244 67 357 0.0 0.0 0.00 0.00 0.00 99
20260903113739 66 3 0.0 0.0 0.00 0.00 0.00 99
20260903113235 66 0 0.0 1.0 0.00 0.00 0.00 99
20260903112730 66 0 0.0 1.0 0.00 0.00 0.00 99
20260903112226 66 352 0.0 0.0 0.00 0.00 0.00 99
20260903111725 66 357 0.0 0.0 0.00 0.00 0.00 99
20260903111220 66 353 0.0 0.0 0.00 0.00 0.00 99
20260903110716 66 11 0.0 0.0 0.00 0.00 0.00 99
20260903110212 66 353 0.0 0.0 0.00 0.00 0.00 99
20260903105711 66 357 0.0 0.0 0.00 0.00 0.00 99
20260903105207 66 354 0.0 0.0 0.00 0.00 0.00 99
20260903104706 66 359 0.0 0.0 0.00 0.00 0.00 99
20260903104201 66 359 0.0 0.0 0.00 0.00 0.00 99
20260903103657 66 352 0.0 0.0 0.00 0.00 0.00 99
20260903103154 66 350 0.0 0.0 0.00 0.00 0.00 99
20260903102653 66 350 0.0 0.0 0.00 0.00 0.00 99
20260903102148 66 1 0.0 0.0 0.00 0.00 0.00 99
20260903101647 66 359 0.0 0.0 0.00 0.00 0.00 99
20260903101143 66 352 0.0 0.0 0.00 0.00 0.00 99
20260903100637 66 352 0.0 0.0 0.00 0.00 0.00 99
20260903100137 66 2 0.0 0.0 0.00 0.00 0.00 99
20260903095635 66 0 0.0 0.0 0.00 0.00 0.00 99
20260903095135 66 4 0.0 1.0 0.00 0.00 0.00 99
20260903094630 66 355 0.0 0.0 0.00 0.00 0.00 99
20260903094125 66 358 0.0 0.0 0.00 0.00 0.00 99
20260903093620 66 352 0.0 0.0 0.00 0.00 0.00 99
20260903093116 66 2 0.0 1.0 0.00 0.00 0.00 99
20260903092615 66 357 0.0 0.0 0.00 0.00 0.00 99
20260903092110 66 355 0.0 0.0 0.00 0.00 0.00 99
20260903091608 66 339 0.0 0.0 0.00 0.00 0.00 99
20260903091103 66 355 0.0 0.0 0.00 0.00 0.00 99
20260903090559 66 354 0.0 0.0 0.00 0.00 0.00 99
20260903090057 66 14 0.0 1.0 0.00 0.00 0.00 99
20260903085556 66 359 1.0 2.0 0.00 0.00 0.00 99
20260903085052 66 357 0.0 0.0 0.00 0.00 0.00 99
20260903084550 66 1 0.0 0.0 0.00 0.00 0.00 99
20260903084044 66 358 0.0 1.0 0.00 0.00 0.00 99
20260903083540 66 356 0.0 1.0 0.00 0.00 0.00 99
20260903083040 67 357 0.0 1.0 0.00 0.00 0.00 99
20260903082534 67 17 0.0 1.0 0.00 0.00 0.00 99
20260903082030 67 2 0.0 1.0 0.00 0.00 0.00 99
20260903081525 67 358 0.0 1.0 0.00 0.00 0.00 99
20260903081021 67 353 0.0 0.0 0.00 0.00 0.00 99
20260903080517 67 349 0.0 0.0 0.00 0.00 0.00 99
20260903080014 67 358 0.0 0.0 0.00 0.00 0.00 99
20260903075508 67 358 0.0 0.0 0.00 0.00 0.00 99
20260903075003 67 2 0.0 0.0 0.00 0.00 0.00 99
20260903074502 67 358 0.0 0.0 0.00 0.00 0.00 99
20260903073957 67 359 0.0 0.0 0.00 0.00 0.00 99
20260903073452 67 358 0.0 0.0 0.00 0.00 0.00 99
20260903072948 67 358 0.0 0.0 0.00 0.00 0.00 99
20260903072444 67 358 0.0 0.0 0.00 0.00 0.00 99
20260903071941 67 353 0.0 0.0 0.00 0.00 0.00 99
20260903071437 67 358 0.0 0.0 0.00 0.00 0.00 99
20260903070932 67 5 0.0 1.0 0.00 0.00 0.00 99
20260903070432 67 358 0.0 0.0 0.00 0.00 0.00 99
20260903065927 67 357 0.0 0.0 0.00 0.00 0.00 99
20260903065426 67 358 0.0 0.0 0.00 0.00 0.00 99
20260903064926 66 3 0.0 0.0 0.00 0.00 0.00 99
20260903064421 67 356 0.0 0.0 0.00 0.00 0.00 99
20260903063917 67 3 0.0 1.0 0.00 0.00 0.00 99
20260903063412 67 356 0.0 0.0 0.00 0.00 0.00 99
20260903062907 67 356 0.0 0.0 0.00 0.00 0.00 99
20260903062402 67 351 0.0 0.0 0.00 0.00 0.00 99
20260903061858 67 356 0.0 0.0 0.00 0.00 0.00 99
20260903061357 67 356 0.0 0.0 0.00 0.00 0.00 99
20260903060853 67 356 0.0 0.0 0.00 0.00 0.00 99
20260903060352 67 356 0.0 0.0 0.00 0.00 0.00 99
20260903055850 67 356 0.0 0.0 0.00 0.00 0.00 99
20260903055348 67 356 0.0 0.0 0.00 0.00 0.00 99
20260903054844 67 356 0.0 0.0 0.00 0.00 0.00 99
20260903054338 67 356 0.0 0.0 0.00 0.00 0.00 99
20260903053835 67 357 0.0 0.0 0.00 0.00 0.00 99
20260903053329 67 356 0.0 0.0 0.00 0.00 0.00 99
20260903052825 67 340 0.0 0.0 0.00 0.00 0.00 99
20260903052320 67 341 0.0 0.0 0.00 0.00 0.00 99
20260903051816 67 4 0.0 0.0 0.00 0.00 0.00 99
20260903051311 67 5 0.0 0.0 0.00 0.00 0.00 99
20260903050807 67 358 0.0 0.0 0.00 0.00 0.00 99
20260903050306 67 4 0.0 1.0 0.00 0.00 0.00 99
20260903045801 67 359 0.0 0.0 0.00 0.00 0.00 99
20260903045257 67 17 0.0 1.0 0.00 0.00 0.00 99
20260903044753 67 4 0.0 0.0 0.00 0.00 0.00 99
20260903044248 67 3 0.0 0.0 0.00 0.00 0.00 99
20260903043745 67 358 0.0 1.0 0.00 0.00 0.00 99
20260903043244 67 3 0.0 0.0 0.00 0.00 0.00 99
20260903042743 67 359 0.0 0.0 0.00 0.00 0.00 99
20260903042239 67 0 0.0 0.0 0.00 0.00 0.00 99
20260903041735 67 354 0.0 2.0 0.00 0.00 0.00 99
20260903041230 67 11 1.0 2.0 0.00 0.00 0.00 99
20260903040725 67 358 0.0 0.0 0.00 0.00 0.00 99
20260903040220 67 358 0.0 1.0 0.00 0.00 0.00 99
20260903035715 67 0 1.0 1.0 0.00 1.44 1.44 99
20260903035206 67 358 0.0 1.0 0.00 1.44 1.44 99
20260903034705 67 356 0.0 0.0 0.00 1.44 1.44 99
20260903034200 67 356 0.0 0.0 0.00 1.44 1.44 99
20260903033656 67 12 0.0 1.0 0.00 1.44 1.44 99
20260903033155 67 39 1.0 2.0 0.00 1.44 1.44 99
20260903032650 67 355 0.0 1.0 0.00 1.44 1.44 99
20260903032147 67 3 0.0 1.0 0.00 1.44 1.44 99
20260903031642 67 21 0.0 1.0 0.00 1.44 1.44 99
20260903031142 67 354 0.0 2.0 0.00 1.44 1.44 99
20260903030638 67 1 0.0 2.0 0.00 1.44 1.44 99
20260903030133 67 9 1.0 2.0 0.00 1.44 1.44 99
20260903025628 67 25 0.0 3.0 0.00 1.44 1.44 99
20260903025124 67 3 0.0 1.0 0.00 1.44 1.44 99
20260903024618 67 26 1.0 3.0 0.00 1.44 1.44 99
20260903024113 67 1 0.0 0.0 0.00 1.44 1.44 99
20260903023609 67 21 0.0 1.0 0.00 1.44 1.44 99
20260903023108 67 10 0.0 1.0 0.00 1.44 1.44 99
20260903022603 67 32 0.0 1.0 0.00 1.44 1.44 99
20260903022102 67 60 0.0 0.0 0.00 1.44 1.44 99
20260903021557 67 4 0.0 0.0 0.00 1.44 1.44 99
20260903021057 67 357 0.0 0.0 0.00 1.44 1.44 99
20260903020552 68 348 0.0 1.0 0.00 1.44 1.44 99
20260903020047 68 326 0.0 2.0 0.00 1.44 1.44 99
20260903015543 68 340 0.0 1.0 0.00 1.44 1.44 99
20260903015038 68 346 0.0 2.0 0.00 1.44 1.44 99
20260903014537 68 223 1.0 2.0 0.00 1.44 1.44 99
20260903014032 68 262 1.0 2.0 0.00 1.44 1.44 99
20260903013531 68 93 0.0 1.0 0.00 1.44 1.44 99
20260903013026 68 2 0.0 1.0 0.00 1.44 1.44 99
20260903012526 68 354 0.0 0.0 0.00 1.44 1.44 99
20260903012024 68 0 1.0 2.0 0.00 1.44 1.44 99
20260903011519 68 356 0.0 0.0 0.00 1.44 1.44 99
20260903011014 68 304 0.0 0.0 0.00 1.44 1.44 99
20260903010509 69 358 0.0 0.0 0.00 1.44 1.44 99
20260903010008 69 347 0.0 0.0 0.00 1.44 1.44 99
20260903005503 69 7 1.0 1.0 0.00 1.44 1.44 99
20260903004958 69 353 0.0 0.0 0.00 1.44 1.44 99
20260903004453 69 354 0.0 0.0 0.00 1.44 1.44 99
20260903003949 69 356 0.0 0.0 0.00 1.44 1.44 99
20260903003448 69 347 0.0 0.0 0.00 1.44 1.44 99
20260903002943 69 219 3.0 5.0 0.00 1.44 1.44 99
20260903002438 69 245 2.0 3.0 0.28 1.44 1.44 99
20260903001938 69 24 0.0 3.0 0.35 1.44 1.44 99
20260903001438 69 30 0.0 1.0 0.00 1.38 1.38 99
20260903000932 68 342 0.0 0.0 0.12 1.38 1.38 99
20260903000428 68 246 2.0 3.0 0.07 1.37 1.37 99
20260902235925 68 344 0.0 1.0 0.00 1.36 1.36 99
20260902235420 68 274 0.0 0.0 0.00 1.36 1.36 99
20260902234915 68 225 0.0 2.0 0.00 1.36 1.36 99
20260902234410 68 248 2.0 3.0 0.00 1.36 1.36 99
20260902233909 69 292 2.0 2.0 0.00 1.36 1.36 99
20260902233403 69 323 0.0 1.0 0.00 1.36 1.36 99
20260902232902 69 359 0.0 1.0 0.07 1.36 1.36 99
20260902232357 69 346 0.0 2.0 0.07 1.36 1.36 99
20260902231857 69 107 0.0 1.0 0.00 1.35 1.35 99
20260902231352 69 343 0.0 1.0 0.05 1.35 1.35 99
20260902230847 69 352 0.0 0.0 0.12 1.35 1.35 99
20260902230346 69 355 0.0 0.0 0.12 1.34 1.34 99
20260902225840 69 353 0.0 0.0 0.05 1.33 1.33 99
20260902225336 69 355 0.0 1.0 0.00 1.32 1.32 99
20260902224833 69 353 0.0 0.0 0.07 1.32 1.32 99
20260902224329 69 2 0.0 0.0 0.07 1.32 1.32 99
20260902223825 69 351 0.0 2.0 0.00 1.31 1.31 99
20260902223319 68 209 1.0 2.0 0.28 1.31 1.31 99
20260902222814 68 337 1.0 6.0 0.78 1.30 1.30 99
20260902222312 68 19 2.0 6.0 1.49 1.25 1.25 99
20260902221807 68 98 3.0 8.0 1.44 1.14 1.14 99
20260902221306 69 216 2.0 9.0 1.49 0.99 0.99 98
20260902220802 71 56 6.0 9.0 2.72 0.89 0.89 98
20260902220301 71 40 8.0 14.0 2.81 0.68 0.68 97
20260902215757 71 59 3.0 7.0 1.37 0.38 0.38 96
20260902215252 72 356 0.0 1.0 0.24 0.19 0.19 94
20260902214748 72 10 0.0 2.0 0.00 0.15 0.15 94
20260902214247 72 151 3.0 5.0 0.00 0.15 0.15 94
20260902213743 73 346 1.0 1.0 0.00 0.15 0.15 95
20260902213242 74 8 0.0 1.0 0.00 0.15 0.15 94
20260902212741 74 349 0.0 3.0 0.00 0.15 0.15 93
20260902212238 75 240 3.0 5.0 0.61 0.15 0.15 92
20260902211734 76 338 1.0 2.0 0.54 0.14 0.14 90
20260902211230 79 300 1.0 6.0 0.05 0.05 0.05 86
20260902210730 83 358 0.0 0.0 0.05 0.05 0.05 85
20260902210225 84 40 0.0 2.0 0.00 0.04 0.04 83
20260902205723 84 10 1.0 2.0 0.00 0.04 0.04 82
20260902205218 85 358 1.0 2.0 0.00 0.04 0.04 80
20260902204714 85 354 3.0 5.0 0.00 0.04 0.04 80
20260902204209 85 307 2.0 5.0 0.00 0.04 0.04 80
20260902203703 85 6 1.0 6.0 0.00 0.04 0.04 79
20260902203158 85 28 0.0 1.0 0.00 0.04 0.04 80
20260902202653 85 231 1.0 5.0 0.00 0.04 0.04 80
20260902202150 86 253 5.0 7.0 0.00 0.04 0.04 79
20260902201646 86 324 1.0 5.0 0.00 0.04 0.04 80
20260902201144 86 272 1.0 3.0 0.00 0.04 0.04 80
20260902200639 86 255 3.0 8.0 0.00 0.04 0.04 79
20260902200135 86 29 1.0 6.0 0.00 0.04 0.04 79
20260902195631 86 191 3.0 6.0 0.00 0.04 0.04 78
20260902195131 86 280 1.0 5.0 0.00 0.04 0.04 79
20260902194629 86 293 4.0 7.0 0.00 0.04 0.04 80
20260902194125 87 263 3.0 3.0 0.00 0.04 0.04 77
20260902193620 86 39 2.0 3.0 0.00 0.04 0.04 79
20260902193115 85 291 0.0 1.0 0.00 0.04 0.04 80
20260902192613 85 287 0.0 1.0 0.00 0.04 0.04 81
20260902192113 85 25 1.0 2.0 0.00 0.04 0.04 81
20260902191608 85 343 0.0 2.0 0.00 0.04 0.04 82
20260902191102 84 15 1.0 1.0 0.00 0.04 0.04 82
20260902190558 84 107 1.0 3.0 0.00 0.04 0.04 82
20260902190053 84 337 0.0 2.0 0.00 0.04 0.04 82
20260902185549 84 264 2.0 2.0 0.00 0.04 0.04 82
20260902185044 84 319 1.0 1.0 0.00 0.04 0.04 82
20260902184539 84 4 4.0 7.0 0.00 0.04 0.04 82
20260902184034 85 162 1.0 5.0 0.00 0.04 0.04 81
20260902183531 85 18 1.0 3.0 0.00 0.04 0.04 81
20260902183027 84 45 0.0 1.0 0.00 0.04 0.04 83
20260902182523 84 34 1.0 2.0 0.00 0.04 0.04 82
20260902182019 84 29 0.0 5.0 0.00 0.04 0.04 82
20260902181514 84 35 2.0 5.0 0.00 0.04 0.04 81
20260902181008 85 52 2.0 3.0 0.00 0.04 0.04 81
20260902180503 84 5 2.0 3.0 0.00 0.04 0.04 81
20260902175958 84 197 1.0 2.0 0.00 0.04 0.04 83
20260902175453 83 179 1.0 5.0 0.00 0.04 0.04 83
20260902174949 83 274 2.0 3.0 0.00 0.04 0.04 83
20260902174446 84 256 2.0 2.0 0.00 0.04 0.04 82
20260902173941 84 56 2.0 3.0 0.00 0.04 0.04 82
20260902173440 84 325 1.0 5.0 0.00 0.04 0.04 83
20260902172936 83 209 3.0 3.0 0.00 0.04 0.04 83
20260902172434 82 328 2.0 5.0 0.00 0.04 0.04 85
20260902171930 83 254 3.0 6.0 0.00 0.04 0.04 84
20260902171425 83 3 1.0 2.0 0.00 0.04 0.04 84
20260902170921 83 25 0.0 6.0 0.00 0.04 0.04 85
20260902170416 82 273 2.0 3.0 0.00 0.04 0.04 87
20260902165912 81 345 1.0 6.0 0.00 0.04 0.04 88
20260902165411 80 128 2.0 5.0 0.00 0.04 0.04 89
20260902164906 79 237 3.0 3.0 0.00 0.04 0.04 90
20260902164401 78 256 1.0 3.0 0.00 0.04 0.04 91
20260902163900 78 257 2.0 3.0 0.00 0.04 0.04 92
20260902163355 77 352 2.0 3.0 0.00 0.04 0.04 92
20260902162853 77 333 1.0 3.0 0.00 0.04 0.04 93
20260902162349 76 55 2.0 5.0 0.00 0.04 0.04 94
20260902161849 75 304 2.0 6.0 0.00 0.04 0.04 95